DW4326 Weather Reports


time (UTC)temp
F
wind
direction
speed
knots
gust
knots
rain 1hr
in
rain 24hr
in
rain mn
in
humidity
%
barometer
mb
20260506071138 54 312 0.0 0.0 0.00 0.14 0.01 96 1007.5
20260506061123 55 312 0.0 0.0 0.01 0.14 0.01 96 1007.5
20260506051120 55 311 0.0 0.9 0.00 0.13 0.00 96 1007.5
20260506044119 55 22 0.0 0.0 0.01 0.13 0.00 96 1007.3
20260506042616 55 104 0.0 0.0 0.01 0.13 0.00 96 1007.4
20260506041847 55 104 0.0 0.0 0.01 0.13 0.00 95 1007.3
20260506035610 55 103 0.0 0.0 0.01 0.13 0.13 95 1007.1
20260506034104 55 103 0.0 0.0 0.00 0.12 0.12 94 1007.2
20260506032603 55 103 0.0 0.0 0.00 0.12 0.12 94 1007.0
20260506031057 55 103 0.0 0.0 0.00 0.12 0.12 93 1007.0
20260506030330 55 101 0.0 0.0 0.00 0.12 0.12 93 1006.9
20260506024051 55 101 0.0 0.0 0.00 0.12 0.12 93 1006.9
20260506022551 56 101 0.0 0.0 0.00 0.12 0.12 92 1006.9
20260506021046 56 101 0.0 0.0 0.00 0.12 0.12 92 1006.9
20260506015546 56 101 0.0 0.0 0.00 0.12 0.12 92 1006.7
20260506014039 56 101 0.0 0.0 0.00 0.12 0.12 90 1006.6
20260506012541 57 101 0.0 0.0 0.00 0.12 0.12 88 1006.3
20260506011037 58 101 0.0 0.0 0.00 0.12 0.12 88 1006.0
20260506005534 59 101 0.0 0.0 0.00 0.12 0.12 87 1006.0
20260506004035 59 101 0.0 2.6 0.00 0.12 0.12 86 1005.9
20260506002534 59 52 0.0 0.9 0.00 0.12 0.12 87 1005.7
20260506001034 59 88 0.0 0.9 0.00 0.12 0.12 89 1005.8
20260505235530 60 288 0.0 3.5 0.00 0.12 0.12 88 1005.7
20260505234030 60 113 0.9 5.2 0.00 0.12 0.12 88 1005.9
20260505232530 60 24 0.0 0.0 0.00 0.12 0.12 89 1005.8
20260505231032 61 24 0.0 4.3 0.00 0.12 0.12 87 1005.6
20260505225532 62 23 0.0 3.5 0.00 0.12 0.12 87 1005.6
20260505224028 63 111 0.0 7.0 0.00 0.12 0.12 83 1005.1
20260505222528 63 51 0.9 7.8 0.00 0.12 0.12 83 1005.2
20260505221024 62 302 0.9 7.0 0.00 0.12 0.12 87 1005.2
20260505215523 62 198 0.0 0.0 0.00 0.12 0.12 91 1005.3
20260505214755 62 198 0.0 3.5 0.01 0.12 0.12 90 1005.0
20260505212522 61 196 1.7 4.3 0.07 0.12 0.12 91 1004.6
20260505211023 61 196 0.0 5.2 0.12 0.12 0.12 91 1004.2
20260505205520 61 60 0.0 3.5 0.12 0.12 0.12 88 1004.5
20260505204021 63 327 3.5 17.4 0.11 0.11 0.11 81 1005.0
20260505202516 69 342 7.8 20.9 0.05 0.05 0.06 68 1004.4
20260505201015 77 111 2.6 11.3 0.00 0.00 0.00 35 1002.1
20260505195514 78 221 3.5 15.6 0.00 0.00 0.00 34 1001.9
20260505194014 78 173 3.5 13.9 0.00 0.00 0.00 34 1001.6
20260505192512 79 57 4.3 22.6 0.00 0.00 0.00 34 1002.3
20260505191012 80 155 5.2 19.1 0.00 0.00 0.00 33 1001.6
20260505185513 80 204 4.3 17.4 0.00 0.00 0.00 35 1002.1
20260505184738 80 284 5.2 15.6 0.00 0.00 0.00 33 1002.6
20260505182507 80 138 4.3 14.8 0.00 0.00 0.00 33 1002.3
20260505181002 81 277 2.6 12.2 0.00 0.00 0.00 34 1002.4
20260505175500 81 130 7.0 18.2 0.00 0.00 0.00 33 1002.7
20260505173955 81 246 5.2 17.4 0.00 0.00 0.00 34 1002.9
20260505172456 80 90 6.1 19.1 0.00 0.00 0.00 33 1003.4
20260505170948 79 10 5.2 20.0 0.00 0.00 0.00 34 1003.1
20260505165448 78 191 5.2 16.5 0.00 0.00 0.00 37 1003.4
20260505163943 78 355 5.2 20.9 0.00 0.00 0.00 39 1003.7
20260505163213 78 150 6.1 22.6 0.00 0.00 0.00 37 1003.6
20260505160938 78 67 7.0 20.0 0.00 0.00 0.00 38 1004.0
20260505152438 74 338 7.0 16.5 0.00 0.00 0.00 45 1005.1
20260505150937 74 149 3.5 15.6 0.00 0.00 0.00 46 1005.1
20260505123935 58 190 1.7 5.2 0.00 0.00 0.00 72 1005.6
20260505122432 48 322 0.0 0.0 0.00 0.00 0.00 91 1006.1
20260505122428 52 170 0.9 6.1 0.00 0.00 0.00 85 1005.8
20260505115429 46 322 0.0 0.0 0.00 0.00 0.00 92 1006.1
20260505113928 45 322 0.0 0.0 0.00 0.00 0.00 94 1006.2
20260505112425 44 322 0.0 0.0 0.00 0.00 0.00 96 1006.4
20260505110925 43 322 0.0 0.0 0.00 0.00 0.00 95 1006.5
20260505100924 40 322 0.0 0.0 0.00 0.00 0.00 95 1006.0
20260505095423 40 322 0.0 0.0 0.00 0.00 0.00 94 1005.9
20260505093923 40 322 0.0 0.0 0.00 0.00 0.00 94 1006.0
20260505092422 40 322 0.0 0.0 0.00 0.00 0.00 94 1006.1
20260505090922 40 322 0.0 0.0 0.00 0.00 0.00 94 1006.3
20260505085415 40 322 0.0 0.0 0.00 0.00 0.00 94 1006.4
20260505083917 39 322 0.0 0.0 0.00 0.00 0.00 93 1006.6
20260505082409 40 322 0.0 0.0 0.00 0.00 0.00 94 1006.6
20260505080910 40 322 0.0 0.0 0.00 0.00 0.00 93 1006.3
20260505075404 40 322 0.0 0.0 0.00 0.00 0.00 93 1006.3
20260505073904 40 322 0.0 0.0 0.00 0.00 0.00 92 1006.3
20260505072357 40 322 0.0 0.0 0.00 0.00 0.00 92 1006.4
20260505071630 40 322 0.0 0.0 0.00 0.00 0.00 92 1006.5